GROUP/SHIP,CRUISE_DESIGNATION,JD_GMT,DATE_DDMMYYYY,TIME_HH:MM:SS,LAT_DEC_DEGREE,LONG_DEC_DEGREE,xCO2W_PPM,xCO2A_PPM,PRES_EQUIL_hPa,PRES_SEALEVEL_hPa,EqTEMP_C,SST(TSG)_C,SAL(TSG)_PERMIL,WATER_FLOW_L/MIN,GAS_FLOW_IR_ML/MIN,TEMP_IR_C,PRES_IR_hPa,SHIP_HEADING_TRUE_DEGREE,SHIP_SPEED_KNOT,WIND_DIR_REL_DEGREE,WIND_SPEED_REL_M/S,fCO2W@SST_uATM,QC_FLAG_WATER,fCO2A_uATM,QC_FLAG_AIR,dfCO2_uATM,FLUORO_uG/L,WIND_SPEED_TRUE_M/S,WIND_DIR_TRUE_DEGREE,AIR_TEMP_C
AOML_Brown,RB200701,82.932,23032007,22:22:04,29.727,-80.236,-999.99,-999.99,1022.13,1022.87,23.84,23.67,35.97,9.92,54.40,33.86,1022.13,168.60,11.30,310.80,4.94,-999.99,4,-999.99,4,-999.99,1.26,7.54,79.49,22.82
AOML_Brown,RB200701,82.935,23032007,22:26:30,29.714,-80.235,-999.99,-999.99,1022.07,1023.00,23.76,23.57,35.96,9.93,55.05,33.95,1022.07,178.40,11.40,310.50,4.22,-999.99,4,-999.99,4,-999.99,1.27,6.72,79.30,22.82
AOML_Brown,RB200701,82.938,23032007,22:31:00,29.698,-80.235,-999.99,-999.99,1022.03,1022.96,23.66,23.44,36.01,9.80,56.14,33.99,1022.03,179.80,11.80,308.60,4.32,-999.99,4,-999.99,4,-999.99,1.35,7.27,77.19,22.94
AOML_Brown,RB200701,82.941,23032007,22:35:30,29.685,-80.234,-999.99,-999.99,1022.12,1023.07,23.61,23.42,35.99,9.90,54.21,34.01,1022.12,180.10,11.90,311.00,4.06,-999.99,4,-999.99,4,-999.99,1.39,6.73,75.69,22.84
AOML_Brown,RB200701,82.953,23032007,22:52:01,29.626,-80.233,-999.99,-999.99,1022.07,1022.95,22.97,22.74,36.02,10.10,54.06,34.12,1022.07,176.30,13.20,308.70,4.78,-999.99,4,-999.99,4,-999.99,2.16,7.84,74.74,22.72
AOML_Brown,RB200701,82.956,23032007,22:56:30,29.611,-80.232,-999.99,-999.99,1022.01,1022.91,22.96,22.74,36.01,9.98,57.02,34.15,1022.01,177.00,13.30,308.90,4.73,-999.99,4,-999.99,4,-999.99,2.15,7.61,75.78,22.77
AOML_Brown,RB200701,82.959,23032007,23:01:00,29.593,-80.232,-999.99,-999.99,1022.01,1022.95,23.00,22.83,36.02,9.82,57.95,34.17,1022.01,178.30,13.00,310.90,4.53,-999.99,4,-999.99,4,-999.99,2.18,6.75,78.89,22.74
AOML_Brown,RB200701,82.962,23032007,23:05:30,29.578,-80.231,-999.99,-999.99,1021.94,1022.87,23.13,22.95,36.02,9.64,234.96,34.19,1021.94,180.90,13.10,308.00,4.73,-999.99,4,-999.99,4,-999.99,2.10,7.99,77.56,22.79
AOML_Brown,RB200701,82.974,23032007,23:22:04,29.516,-80.230,-999.99,-999.99,1021.87,1022.77,23.03,22.80,36.00,10.03,247.84,34.32,1021.87,179.60,13.00,311.10,4.53,-999.99,4,-999.99,4,-999.99,1.89,7.18,78.16,22.74
AOML_Brown,RB200701,82.977,23032007,23:26:29,29.502,-80.230,-999.99,-999.99,1021.92,1022.91,22.91,22.68,36.01,9.94,240.32,34.34,1021.92,177.50,12.90,306.30,4.68,-999.99,4,-999.99,4,-999.99,1.92,7.64,76.24,22.77
AOML_Brown,RB200701,82.980,23032007,23:31:00,29.484,-80.229,-999.99,-999.99,1021.90,1022.92,23.06,22.92,36.00,10.11,250.05,34.36,1021.90,178.60,11.90,297.20,4.12,-999.99,4,-999.99,4,-999.99,1.74,7.78,67.55,22.74
AOML_Brown,RB200701,82.983,23032007,23:35:30,29.471,-80.229,-999.99,-999.99,1021.89,1022.79,23.42,23.29,35.94,10.02,250.97,34.37,1021.89,179.70,11.70,310.30,4.94,-999.99,4,-999.99,4,-999.99,1.33,7.82,86.40,22.74
AOML_Brown,RB200701,82.994,23032007,23:52:01,29.416,-80.230,-999.99,-999.99,1021.93,1023.01,23.96,23.80,35.90,10.02,257.56,34.44,1021.93,182.10,11.80,295.40,4.58,-999.99,4,-999.99,4,-999.99,1.03,8.89,72.16,22.77
AOML_Brown,RB200701,82.998,23032007,23:56:30,29.402,-80.231,-999.99,-999.99,1021.98,1022.80,23.99,23.82,35.91,10.16,261.01,34.45,1021.98,183.30,12.00,304.50,4.78,-999.99,4,-999.99,4,-999.99,1.01,8.32,81.42,22.69
AOML_Brown,RB200701,83.001,24032007,00:01:00,29.386,-80.231,-999.99,-999.99,1022.03,1022.88,24.02,23.85,35.90,10.19,263.12,34.45,1022.03,182.10,11.90,307.50,4.37,-999.99,4,-999.99,4,-999.99,0.97,7.37,79.47,22.69
AOML_Brown,RB200701,83.004,24032007,00:05:30,29.372,-80.232,-999.99,-999.99,1021.95,1022.97,24.02,23.84,35.91,10.15,262.76,34.43,1021.95,183.40,12.30,305.10,4.37,-999.99,4,-999.99,4,-999.99,0.96,7.55,76.18,22.69
AOML_Brown,RB200701,83.015,24032007,00:22:04,29.315,-80.235,355.87,389.40,1022.11,1022.95,23.94,23.74,35.90,10.09,261.42,34.42,1022.11,183.00,12.40,306.40,4.22,344.65,2,380.91,2,-36.25,1.02,7.38,75.67,22.69
AOML_Brown,RB200701,83.018,24032007,00:26:30,29.301,-80.236,355.98,389.40,1021.99,1022.91,23.90,23.71,35.92,10.15,264.61,34.41,1021.99,183.30,12.70,308.00,5.20,344.89,2,380.91,2,-36.02,1.04,8.71,84.86,22.74
AOML_Brown,RB200701,83.022,24032007,00:31:00,29.283,-80.237,356.00,389.40,1022.00,1023.08,23.87,23.67,35.90,10.15,267.38,34.41,1022.00,182.00,12.50,298.10,4.58,344.84,2,380.91,2,-36.07,1.08,8.10,72.45,22.77
AOML_Brown,RB200701,83.025,24032007,00:35:31,29.269,-80.238,356.22,389.40,1021.94,1023.03,23.84,23.64,35.90,10.13,267.12,34.40,1021.94,180.80,12.70,292.30,4.58,345.05,2,380.91,2,-35.86,1.09,9.30,66.46,22.67
AOML_Brown,RB200701,83.036,24032007,00:52:02,29.209,-80.239,357.27,389.40,1022.10,1023.01,23.78,23.58,35.90,10.11,262.78,34.40,1022.10,178.70,12.60,306.30,4.78,346.11,2,380.91,2,-34.80,1.18,8.06,77.23,22.67
AOML_Brown,RB200701,83.039,24032007,00:56:31,29.194,-80.239,357.58,389.40,1022.14,1022.90,23.75,23.56,35.88,9.99,266.62,34.40,1022.14,177.90,12.70,318.70,4.78,346.58,2,380.91,2,-34.33,1.21,6.49,88.89,22.69
AOML_Brown,RB200701,83.042,24032007,01:01:01,29.176,-80.239,357.95,389.40,1022.22,1022.91,23.74,23.54,35.89,10.03,269.01,34.39,1022.22,179.60,13.00,333.80,4.94,346.88,2,380.91,2,-34.03,1.23,5.28,105.47,22.39
AOML_Brown,RB200701,83.045,24032007,01:05:31,29.162,-80.238,358.29,389.40,1022.20,1023.11,23.73,23.52,35.90,10.19,271.32,34.39,1022.20,181.00,13.10,340.60,4.42,347.05,2,380.91,2,-33.86,1.24,3.73,107.63,22.12
AOML_Brown,RB200701,83.057,24032007,01:22:05,29.099,-80.238,350.13,388.95,1022.26,1023.17,23.65,23.46,35.89,10.18,269.15,34.41,1022.26,178.30,13.30,324.40,4.63,339.46,2,380.64,2,-41.18,1.32,5.64,89.85,22.64
AOML_Brown,RB200701,83.060,24032007,01:26:31,29.085,-80.238,350.18,388.95,1022.25,1023.15,23.64,23.44,35.87,9.94,269.82,34.41,1022.25,180.50,13.30,319.20,4.99,339.40,2,380.64,2,-41.24,1.33,7.13,88.31,22.77
AOML_Brown,RB200701,83.063,24032007,01:31:01,29.066,-80.238,350.22,388.95,1022.20,1023.09,23.64,23.44,35.87,10.12,270.12,34.39,1022.20,179.50,13.30,319.20,5.15,339.45,2,380.64,2,-41.19,1.34,7.10,90.97,22.67
AOML_Brown,RB200701,83.066,24032007,01:35:31,29.051,-80.237,350.22,388.95,1022.31,1023.12,23.62,23.43,35.87,10.02,272.13,34.38,1022.31,178.20,13.40,315.00,4.78,339.49,2,380.64,2,-41.15,1.37,7.51,83.69,22.72
AOML_Brown,RB200701,83.078,24032007,01:52:02,28.988,-80.235,351.08,388.95,1022.26,1023.07,23.58,23.36,35.86,10.06,268.81,34.39,1022.26,178.70,13.20,321.10,4.99,340.09,2,380.64,2,-40.55,1.43,6.95,91.94,22.69
AOML_Brown,RB200701,83.081,24032007,01:56:31,28.973,-80.234,351.19,388.95,1022.26,1023.05,23.56,23.36,35.88,10.06,270.61,34.40,1022.26,176.20,13.30,329.80,4.89,340.44,2,380.64,2,-40.20,1.42,5.39,97.23,22.82
AOML_Brown,RB200701,83.084,24032007,02:01:01,28.954,-80.233,351.49,388.95,1022.29,1023.01,23.56,23.36,35.88,10.29,274.23,34.40,1022.29,176.40,13.20,326.70,5.35,340.76,2,380.64,2,-39.89,1.35,6.59,98.21,22.69
AOML_Brown,RB200701,83.087,24032007,02:05:31,28.939,-80.232,352.25,388.95,1022.23,1023.00,23.57,23.38,35.86,9.93,273.27,34.40,1022.23,175.60,13.30,328.00,5.56,341.59,2,380.64,2,-39.05,1.34,6.62,102.00,22.67
AOML_Brown,RB200701,83.099,24032007,02:22:05,28.877,-80.226,350.31,388.82,1022.24,1023.07,23.62,23.42,35.86,10.06,270.62,34.41,1022.24,175.90,13.10,324.00,5.66,339.51,2,380.63,2,-41.12,1.10,7.30,98.76,22.59
AOML_Brown,RB200701,83.102,24032007,02:26:31,28.862,-80.225,349.92,388.82,1022.21,1023.06,23.58,23.37,35.87,10.25,275.07,34.42,1022.21,174.90,13.20,335.20,5.30,339.11,2,380.63,2,-41.53,1.11,5.35,110.27,22.72
AOML_Brown,RB200701,83.105,24032007,02:31:01,28.844,-80.224,349.42,388.82,1022.37,1023.04,23.52,23.31,35.86,9.87,275.87,34.42,1022.37,174.70,13.00,324.40,5.56,338.55,2,380.63,2,-42.08,1.15,6.95,99.20,22.72
AOML_Brown,RB200701,83.108,24032007,02:35:31,28.829,-80.222,348.82,388.82,1022.25,1023.08,23.48,23.28,35.85,10.28,274.60,34.41,1022.25,176.30,13.10,328.00,5.09,338.09,2,380.63,2,-42.54,1.18,6.10,96.94,22.67
AOML_Brown,RB200701,83.119,24032007,02:52:02,28.768,-80.217,347.11,388.82,1022.17,1022.92,23.31,23.09,35.86,10.08,270.57,34.42,1022.17,174.70,12.90,327.40,5.76,336.29,2,380.63,2,-44.34,1.26,6.99,104.98,22.67
AOML_Brown,RB200701,83.123,24032007,02:56:31,28.754,-80.216,346.45,388.82,1022.14,1022.89,23.29,23.04,35.86,10.05,273.19,34.43,1022.14,177.30,13.00,328.20,5.61,335.21,2,380.63,2,-45.42,1.28,6.89,103.81,22.62
AOML_Brown,RB200701,83.126,24032007,03:01:01,28.736,-80.214,346.17,388.82,1022.18,1022.90,23.18,22.95,35.86,9.90,275.73,34.43,1022.18,175.80,13.00,329.00,5.35,335.35,2,380.63,2,-45.28,1.28,6.24,102.66,22.57
AOML_Brown,RB200701,83.129,24032007,03:05:31,28.721,-80.213,346.36,388.82,1022.22,1022.87,23.16,22.94,35.81,10.00,276.62,34.42,1022.22,174.80,13.20,324.40,5.61,335.70,2,380.63,2,-44.94,1.24,7.00,97.61,22.62
AOML_Brown,RB200701,83.140,24032007,03:22:05,28.659,-80.210,342.75,388.83,1022.11,1022.97,23.00,22.77,35.86,10.11,270.92,34.43,1022.11,177.20,13.00,320.90,5.35,331.99,2,381.01,2,-49.02,1.17,7.50,91.13,22.59
AOML_Brown,RB200701,83.143,24032007,03:26:31,28.645,-80.209,342.57,388.83,1022.21,1022.95,22.94,22.71,35.82,10.18,274.27,34.43,1022.21,175.40,13.00,320.20,5.61,331.99,2,381.01,2,-49.02,1.14,7.54,95.02,22.62
AOML_Brown,RB200701,83.147,24032007,03:31:01,28.626,-80.208,342.47,388.83,1022.47,1023.11,22.91,22.67,35.82,9.90,274.52,34.42,1022.47,178.00,13.10,314.40,5.45,331.90,2,381.01,2,-49.11,1.09,8.29,86.97,22.54
AOML_Brown,RB200701,83.150,24032007,03:35:31,28.612,-80.207,342.55,388.83,1022.30,1023.13,22.91,22.69,35.81,9.83,278.23,34.42,1022.30,178.60,13.20,314.30,5.30,332.21,2,381.01,2,-48.80,1.06,8.13,85.26,22.62
AOML_Brown,RB200701,83.161,24032007,03:52:02,28.550,-80.204,343.35,388.83,1022.32,1023.20,22.90,22.68,35.97,9.92,271.89,34.41,1022.32,176.70,13.00,321.00,4.53,333.02,2,381.01,2,-47.99,1.03,5.73,86.44,22.57
AOML_Brown,RB200701,83.164,24032007,03:56:31,28.535,-80.203,343.39,388.83,1022.30,1023.17,22.88,22.67,35.98,9.99,275.25,34.42,1022.30,178.10,13.10,321.30,5.51,333.10,2,381.01,2,-47.91,1.01,7.33,96.84,22.54
AOML_Brown,RB200701,83.167,24032007,04:01:01,28.517,-80.202,343.61,388.83,1022.26,1023.11,22.86,22.64,35.99,9.93,276.40,34.41,1022.26,177.80,13.10,322.60,5.30,333.08,2,381.01,2,-47.93,1.00,6.90,95.62,22.52
AOML_Brown,RB200701,83.171,24032007,04:05:31,28.502,-80.202,343.52,388.83,1022.37,1023.12,22.83,22.61,35.98,10.07,277.19,34.40,1022.37,176.10,13.10,325.40,5.51,333.07,2,381.01,2,-47.94,1.00,6.71,101.31,22.57
AOML_Brown,RB200701,83.182,24032007,04:22:05,28.442,-80.187,338.62,388.78,1022.06,1022.95,22.61,22.39,35.94,9.93,271.51,34.40,1022.06,167.90,13.10,323.60,5.15,328.35,2,381.11,2,-52.76,1.00,6.46,86.20,22.54
AOML_Brown,RB200701,83.185,24032007,04:26:31,28.428,-80.184,338.45,388.78,1022.20,1022.99,22.61,22.38,35.97,10.08,275.20,34.40,1022.20,168.80,13.10,331.60,5.51,328.11,2,381.11,2,-53.01,1.03,6.22,99.84,22.52
AOML_Brown,RB200701,83.188,24032007,04:31:01,28.410,-80.179,338.43,388.78,1022.14,1022.96,22.59,22.35,36.01,9.92,277.87,34.40,1022.14,168.50,13.10,326.60,5.25,327.95,2,381.11,2,-53.16,1.05,6.29,91.33,22.47
AOML_Brown,RB200701,83.191,24032007,04:35:31,28.396,-80.176,338.43,388.78,1022.04,1022.95,22.55,22.32,35.97,10.07,277.90,34.39,1022.04,166.90,13.10,320.50,5.66,328.12,2,381.11,2,-52.99,1.09,7.58,86.93,22.52
AOML_Brown,RB200701,83.203,24032007,04:52:02,28.335,-80.161,338.79,388.78,1022.30,1022.76,22.51,22.29,35.95,10.02,274.14,34.38,1022.30,168.50,13.00,321.10,5.56,328.81,2,381.11,2,-52.31,1.19,6.93,93.24,22.62
AOML_Brown,RB200701,83.206,24032007,04:56:31,28.321,-80.158,339.05,388.78,1021.99,1022.91,22.54,22.29,35.95,10.26,275.17,34.38,1021.99,167.00,13.00,319.40,5.40,328.42,2,381.11,2,-52.69,1.14,7.40,83.03,22.54
AOML_Brown,RB200701,83.209,24032007,05:01:01,28.304,-80.153,338.88,388.78,1022.09,1022.84,22.56,22.37,35.94,10.08,276.34,34.38,1022.09,167.80,12.80,325.80,5.56,329.05,2,381.11,2,-52.06,1.25,7.01,92.74,22.62
AOML_Brown,RB200701,83.212,24032007,05:05:31,28.290,-80.149,342.42,388.78,1022.09,1022.94,23.11,22.98,35.85,10.17,276.50,34.37,1022.09,167.40,12.30,322.30,5.40,333.10,2,381.11,2,-48.02,1.26,7.24,88.36,22.62
AOML_Brown,RB200701,83.224,24032007,05:22:06,28.233,-80.134,349.28,388.81,1022.05,1023.01,23.43,23.25,35.84,10.05,273.40,34.38,1022.05,165.80,12.40,316.70,4.94,338.85,2,380.49,2,-41.64,1.25,6.89,78.25,22.69
AOML_Brown,RB200701,83.227,24032007,05:26:32,28.220,-80.130,350.67,388.81,1022.12,1022.87,23.44,23.27,35.81,10.04,276.10,34.38,1022.12,166.30,12.40,324.70,5.20,340.25,2,380.49,2,-40.24,1.27,6.40,90.62,22.72
AOML_Brown,RB200701,83.230,24032007,05:31:02,28.203,-80.126,351.76,388.81,1022.13,1022.91,23.48,23.29,35.88,9.93,275.65,34.37,1022.13,165.00,12.40,314.60,4.84,341.19,2,380.49,2,-39.30,1.25,6.88,75.10,22.64
AOML_Brown,RB200701,83.233,24032007,05:35:32,28.189,-80.122,352.76,388.81,1022.13,1022.93,23.51,23.32,35.73,10.02,277.15,34.36,1022.13,166.60,12.50,315.00,5.56,342.04,2,380.49,2,-38.45,1.26,8.11,81.65,22.74
AOML_Brown,RB200701,83.244,24032007,05:52:03,28.131,-80.106,353.63,388.81,1021.89,1022.76,23.55,23.38,36.11,9.95,270.80,34.36,1021.89,167.90,12.70,322.00,4.68,342.97,2,380.49,2,-37.52,1.27,6.28,79.39,22.72
AOML_Brown,RB200701,83.248,24032007,05:56:32,28.118,-80.102,354.63,388.81,1021.90,1022.77,23.56,23.37,36.12,9.93,273.67,34.36,1021.90,166.20,12.50,319.00,5.45,343.82,2,380.49,2,-36.67,1.27,7.39,85.93,22.67
AOML_Brown,RB200701,83.251,24032007,06:01:02,28.101,-80.097,355.48,388.81,1022.12,1022.67,23.56,23.37,36.13,9.62,275.86,34.36,1022.12,158.70,12.70,319.10,5.09,344.61,2,380.49,2,-35.88,1.25,6.99,72.66,22.67
AOML_Brown,RB200701,83.254,24032007,06:05:32,28.088,-80.091,356.36,388.81,1021.88,1022.65,23.56,23.37,36.12,10.05,276.32,34.35,1021.88,159.00,12.60,326.10,5.51,345.46,2,380.49,2,-35.03,1.20,6.77,86.44,22.69
AOML_Brown,RB200701,83.265,24032007,06:22:06,28.035,-80.061,354.68,388.92,1021.64,1022.63,23.50,23.31,36.10,10.29,274.24,34.36,1021.64,152.80,12.40,319.80,5.40,343.75,2,380.40,2,-36.65,1.30,7.04,75.49,22.77
AOML_Brown,RB200701,83.268,24032007,06:26:32,28.022,-80.054,353.61,388.92,1021.81,1022.52,23.55,23.36,36.10,9.99,275.68,34.36,1021.81,152.80,12.60,321.70,4.78,342.78,2,380.40,2,-37.63,1.23,5.88,70.08,22.72
AOML_Brown,RB200701,83.272,24032007,06:31:02,28.006,-80.045,353.24,388.92,1021.74,1022.51,23.56,23.38,36.11,10.22,276.84,34.36,1021.74,153.30,12.60,328.60,5.35,342.40,2,380.40,2,-38.01,1.24,6.08,84.81,22.72
AOML_Brown,RB200701,83.275,24032007,06:35:32,27.994,-80.038,353.26,388.92,1021.69,1022.47,23.57,23.38,36.11,10.12,278.37,34.34,1021.69,159.50,12.60,322.90,5.40,342.30,2,380.40,2,-38.11,1.22,6.90,82.57,22.67
AOML_Brown,RB200701,83.286,24032007,06:52:03,27.940,-80.017,361.46,388.92,1021.73,1022.49,23.97,23.86,36.02,9.98,277.71,34.35,1021.73,161.90,11.60,319.70,4.99,351.28,2,380.40,2,-29.13,1.09,6.41,84.91,22.72
AOML_Brown,RB200701,83.289,24032007,06:56:32,27.927,-80.013,363.68,388.92,1021.40,1022.39,24.13,23.99,36.01,10.03,278.91,34.36,1021.40,164.30,11.60,309.00,4.84,352.70,2,380.40,2,-27.70,1.01,7.49,72.07,22.74
AOML_Brown,RB200701,83.292,24032007,07:01:02,27.912,-80.008,363.95,388.92,1021.49,1022.31,24.27,24.15,36.01,10.31,265.20,34.36,1021.49,167.90,11.40,305.40,5.09,353.25,2,380.40,2,-27.16,0.96,8.72,70.84,22.72
AOML_Brown,RB200701,83.296,24032007,07:05:32,27.900,-80.005,364.72,388.92,1021.34,1022.31,24.40,24.26,35.98,10.07,271.16,34.36,1021.34,166.20,11.10,309.60,4.63,353.56,2,380.40,2,-26.84,0.93,7.01,75.56,22.72
AOML_Brown,RB200701,83.307,24032007,07:22:06,27.848,-79.991,364.08,388.91,1021.27,1022.22,24.49,24.33,35.98,10.23,268.88,34.37,1021.27,168.30,11.10,312.10,4.73,352.73,2,379.49,2,-26.76,0.91,7.07,79.59,22.67
AOML_Brown,RB200701,83.310,24032007,07:26:32,27.836,-79.988,364.83,388.91,1021.33,1022.24,24.56,24.40,35.98,10.09,273.68,34.37,1021.33,167.70,11.10,312.90,4.48,353.42,2,379.49,2,-26.07,0.91,6.58,77.41,22.64
AOML_Brown,RB200701,83.313,24032007,07:31:02,27.821,-79.983,364.70,388.91,1021.30,1022.19,24.60,24.45,35.97,10.11,273.40,34.37,1021.30,166.30,10.90,308.00,4.32,353.27,2,379.49,2,-26.22,0.90,6.67,72.10,22.67
AOML_Brown,RB200701,83.316,24032007,07:35:32,27.809,-79.980,365.05,388.91,1021.20,1022.14,24.62,24.46,35.96,10.25,274.16,34.36,1021.20,166.10,10.90,305.30,4.58,353.42,2,379.49,2,-26.07,0.90,7.03,77.30,22.59
AOML_Brown,RB200701,83.328,24032007,07:52:03,27.761,-79.966,366.29,388.91,1021.30,1022.12,24.87,24.73,35.94,9.89,268.21,34.37,1021.30,166.30,10.40,305.50,5.09,354.82,2,379.49,2,-24.66,0.81,8.17,77.96,22.64
AOML_Brown,RB200701,83.331,24032007,07:56:32,27.750,-79.963,366.73,388.91,1021.25,1022.15,24.92,24.78,35.94,10.16,270.58,34.37,1021.25,164.40,10.00,302.90,4.99,355.17,2,379.49,2,-24.32,0.81,7.99,76.86,22.67
AOML_Brown,RB200701,83.334,24032007,08:01:02,27.737,-79.959,366.96,388.91,1021.19,1022.17,24.96,24.81,35.95,10.16,282.96,34.37,1021.19,164.80,10.00,307.00,4.17,355.25,2,379.49,2,-24.24,0.80,6.40,73.12,22.67
AOML_Brown,RB200701,83.337,24032007,08:05:32,27.726,-79.955,367.36,388.91,1021.15,1022.02,25.00,24.84,35.92,9.94,270.91,34.36,1021.15,165.00,10.20,306.40,4.68,355.51,2,379.49,2,-23.98,0.79,7.27,76.64,22.72
AOML_Brown,RB200701,83.349,24032007,08:22:06,27.680,-79.941,367.77,388.70,1021.23,1022.02,25.17,25.03,35.91,10.07,268.58,34.37,1021.23,166.90,9.80,314.00,4.42,356.08,2,378.90,2,-22.82,0.77,6.15,86.64,22.72
AOML_Brown,RB200701,83.352,24032007,08:26:32,27.669,-79.939,368.42,388.70,1021.28,1022.18,25.20,25.05,35.91,10.16,266.00,34.37,1021.28,172.70,10.10,291.60,3.65,356.50,2,378.90,2,-22.40,0.76,7.16,60.62,22.72
AOML_Brown,RB200701,83.355,24032007,08:31:02,27.656,-79.937,368.73,388.70,1021.34,1022.07,25.22,25.08,35.89,10.24,269.18,34.37,1021.34,172.30,9.80,301.20,4.63,356.84,2,378.90,2,-22.06,0.76,7.69,79.52,22.69
AOML_Brown,RB200701,83.358,24032007,08:35:32,27.645,-79.936,368.91,388.70,1021.11,1022.07,25.24,25.09,35.88,10.10,263.37,34.37,1021.11,171.00,10.00,298.40,4.01,356.90,2,378.90,2,-22.00,0.76,6.98,69.39,22.82
AOML_Brown,RB200701,83.369,24032007,08:52:03,27.598,-79.932,369.42,388.70,1021.36,1022.25,25.25,25.09,36.01,9.97,263.43,34.38,1021.36,178.00,9.90,295.60,3.50,357.38,2,378.90,2,-21.52,0.75,6.60,67.63,22.79
AOML_Brown,RB200701,83.373,24032007,08:56:32,27.587,-79.931,369.57,388.70,1021.29,1022.29,25.24,25.08,36.02,10.01,289.08,34.39,1021.29,183.90,9.90,286.90,3.40,357.47,2,378.90,2,-21.43,0.75,7.21,65.88,22.82
AOML_Brown,RB200701,83.376,24032007,09:01:02,27.573,-79.932,369.80,388.70,1021.35,1022.35,25.21,25.05,36.03,10.17,282.26,34.39,1021.35,187.30,9.90,269.30,2.88,357.60,2,378.90,2,-21.30,0.75,7.86,52.52,22.84
AOML_Brown,RB200701,83.379,24032007,09:05:32,27.562,-79.934,369.71,388.70,1021.31,1022.23,25.20,25.03,36.01,10.05,248.41,34.39,1021.31,185.40,9.70,298.00,2.98,357.49,2,378.90,2,-21.41,0.76,5.97,68.50,22.72
AOML_Brown,RB200701,83.390,24032007,09:22:06,27.515,-79.939,368.25,388.73,1021.34,1022.15,25.12,24.95,36.02,10.16,276.22,34.40,1021.34,187.40,10.00,273.90,4.42,356.15,2,379.15,2,-23.00,0.77,10.03,66.32,22.64
AOML_Brown,RB200701,83.393,24032007,09:26:32,27.504,-79.941,368.05,388.73,1021.32,1022.11,25.10,24.93,36.01,9.98,275.69,34.41,1021.32,184.90,9.80,284.70,3.81,355.93,2,379.15,2,-23.22,0.76,7.90,70.19,22.67
AOML_Brown,RB200701,83.397,24032007,09:31:02,27.490,-79.943,368.03,388.73,1021.37,1022.15,25.09,24.90,36.02,9.94,277.77,34.41,1021.37,186.30,10.00,293.40,4.22,355.70,2,379.15,2,-23.46,0.76,8.10,78.88,22.67
AOML_Brown,RB200701,83.400,24032007,09:35:32,27.479,-79.944,367.81,388.73,1021.27,1022.16,25.05,24.87,36.03,10.18,279.04,34.40,1021.27,187.40,10.00,285.00,3.76,355.67,2,379.15,2,-23.49,0.78,8.16,69.02,22.74
AOML_Brown,RB200701,83.411,24032007,09:52:03,27.432,-79.950,370.73,388.73,1021.29,1022.27,24.98,24.82,36.02,9.87,287.04,34.42,1021.29,181.20,9.90,282.20,4.37,358.65,2,379.15,2,-20.50,0.78,9.09,68.02,22.72
AOML_Brown,RB200701,83.414,24032007,09:56:33,27.421,-79.951,374.81,388.73,1021.31,1022.27,24.99,24.82,36.00,10.06,285.59,34.42,1021.31,184.70,10.00,275.80,3.60,362.60,2,379.15,2,-16.55,0.79,8.60,59.07,22.77
AOML_Brown,RB200701,83.417,24032007,10:01:03,27.407,-79.952,370.84,388.73,1021.44,1022.27,24.99,24.82,36.01,9.97,272.53,34.41,1021.44,180.90,10.20,291.00,3.81,358.81,2,379.15,2,-20.34,0.79,7.53,68.91,22.69
AOML_Brown,RB200701,83.421,24032007,10:05:33,27.396,-79.952,369.19,388.73,1021.48,1022.17,25.00,24.84,35.99,10.19,288.22,34.41,1021.48,182.10,9.90,288.90,4.32,357.24,2,379.15,2,-21.91,0.79,8.54,73.00,22.67
AOML_Brown,RB200701,83.432,24032007,10:22:07,27.349,-79.953,368.02,388.54,1021.46,1022.30,25.05,24.90,35.98,10.03,277.57,34.41,1021.46,180.70,9.90,275.80,3.55,356.13,2,378.92,2,-22.79,0.79,8.40,55.78,22.77
AOML_Brown,RB200701,83.435,24032007,10:26:33,27.337,-79.953,368.40,388.54,1021.41,1022.30,25.08,24.92,35.98,9.89,283.52,34.41,1021.41,180.70,10.10,292.30,3.70,356.43,2,378.92,2,-22.49,0.79,7.70,68.53,22.77
AOML_Brown,RB200701,83.438,24032007,10:31:03,27.324,-79.953,368.84,388.54,1021.55,1022.35,25.11,24.95,35.97,9.98,279.78,34.41,1021.55,181.60,9.70,286.70,4.12,356.96,2,378.92,2,-21.96,0.79,8.42,69.30,22.72
AOML_Brown,RB200701,83.441,24032007,10:35:33,27.313,-79.953,368.91,388.54,1021.38,1022.40,25.16,25.02,35.96,9.68,262.89,34.39,1021.38,178.50,9.80,276.10,3.96,357.07,2,378.92,2,-21.85,0.78,8.89,58.15,22.79
AOML_Brown,RB200701,83.453,24032007,10:52:04,27.266,-79.954,368.66,388.54,1021.58,1022.37,25.25,25.10,35.94,9.90,264.75,34.39,1021.58,179.80,9.80,293.90,3.76,356.82,2,378.92,2,-22.10,0.78,7.38,68.71,22.89
AOML_Brown,RB200701,83.456,24032007,10:56:33,27.255,-79.954,369.31,388.54,1021.44,1022.45,25.26,25.11,35.95,9.82,261.34,34.39,1021.44,178.60,9.70,274.90,3.50,357.34,2,378.92,2,-21.57,0.78,8.17,54.64,22.74
AOML_Brown,RB200701,83.459,24032007,11:01:03,27.242,-79.954,369.80,388.54,1021.42,1022.32,25.27,25.11,35.95,9.89,251.39,34.39,1021.42,182.20,9.70,296.20,4.27,357.75,2,378.92,2,-21.17,0.78,7.93,78.24,22.87
AOML_Brown,RB200701,83.462,24032007,11:05:33,27.231,-79.954,372.06,388.54,1021.54,1022.48,25.27,25.12,35.95,10.06,534.28,34.38,1021.54,179.90,9.60,274.20,3.50,360.05,2,378.92,2,-18.87,0.77,8.24,55.38,22.77
AOML_Brown,RB200701,83.474,24032007,11:22:07,27.185,-79.954,372.01,388.23,1021.49,1022.48,25.30,25.14,36.07,9.82,557.93,34.39,1021.49,180.90,9.40,282.70,3.55,359.92,2,378.54,2,-18.62,0.76,7.75,62.19,22.94
AOML_Brown,RB200701,83.477,24032007,11:26:33,27.174,-79.954,371.22,388.23,1021.50,1022.35,25.29,25.14,36.07,9.94,552.68,34.39,1021.50,179.30,9.70,293.00,3.96,359.13,2,378.54,2,-19.41,0.76,7.46,72.66,22.92
AOML_Brown,RB200701,83.480,24032007,11:31:03,27.161,-79.954,370.91,388.23,1021.52,1022.37,25.30,25.15,36.07,9.84,559.28,34.39,1021.52,179.30,9.80,286.70,4.37,358.88,2,378.54,2,-19.66,0.75,8.64,70.57,22.92
AOML_Brown,RB200701,83.483,24032007,11:35:33,27.150,-79.954,371.52,388.23,1021.50,1022.30,25.31,25.15,36.07,10.07,563.12,34.38,1021.50,178.90,9.80,300.00,4.06,359.42,2,378.54,2,-19.12,0.76,6.92,79.79,22.82
AOML_Brown,RB200701,83.494,24032007,11:52:04,27.104,-79.954,369.93,388.23,1021.50,1022.46,25.32,25.16,36.06,9.96,561.77,34.38,1021.50,177.80,9.80,272.70,4.17,357.85,2,378.54,2,-20.69,0.75,9.35,57.60,22.94
AOML_Brown,RB200701,83.498,24032007,11:56:33,27.093,-79.953,370.35,388.23,1021.56,1022.45,25.31,25.15,36.06,9.76,561.55,34.39,1021.56,182.20,9.90,275.40,4.12,358.27,2,378.54,2,-20.27,0.75,11.34,60.45,22.94
AOML_Brown,RB200701,83.501,24032007,12:01:03,27.079,-79.953,370.44,388.23,1021.61,1022.52,25.31,25.15,36.06,9.54,561.43,34.39,1021.61,180.40,9.90,279.20,4.42,358.41,2,378.54,2,-20.13,0.75,9.58,63.62,23.06
AOML_Brown,RB200701,83.504,24032007,12:05:33,27.068,-79.954,370.71,388.23,1021.54,1022.52,25.30,25.15,36.06,9.64,561.30,34.38,1021.54,180.80,10.60,288.60,4.48,358.67,2,378.54,2,-19.87,0.76,8.83,71.24,23.21
AOML_Brown,RB200701,83.515,24032007,12:22:07,27.015,-79.949,370.68,388.26,1021.56,1022.38,25.31,25.16,36.04,9.73,560.59,34.38,1021.56,170.80,11.10,299.80,5.81,358.67,2,378.30,2,-19.63,0.75,9.92,78.93,23.11